User: anonymous   Login
Location: Newark
(48.8481°N, 20.9372°E)
Time: 04:13:39
(UTC+00:00)
Language:

ITUPSAT 1 - Orbit

View from above orbital plane
View from above orbital plane
View from above satellite
View from above satellite

Ground track
Ground track

The orbit data is extracted from the following two-line orbital elements,

1 35935U 09051E   20091.99893855 +.00000078 +00000-0 +29148-4 0  9991
2 35935 098.6192 273.8649 0008473 024.4968 335.6630 14.55599351558401
Epoch (UTC): 31 March 2020 23:58:28
Eccentricity: 0.0008473
inclination: 98.6192°
perigee height: 701 km
apogee height: 713 km
right ascension of ascending node: 273.8649°
argument of perigee: 24.4968°
revolutions per day: 14.55599351
mean anomaly at epoch: 335.6630°
orbit number at epoch: 55840

The dashed part of the orbit path shows where the satellite is in the earth's shadow,  

DLR